Wetterdaten: aktuell Montag, 10.12.2018 08:40
Datum Zeit Temp. A. Aussen2m Boden Feuchte A. Feuchte 2 Luftdruck Regen Wind Richtung Richtung Sonnenschein
10.12.2018 08:40 4,3 C 32,4 C 10,8 C 84 % 99 % 1016,9 hPa 0,0 l/m 16,9 km/h (3 Bft) SW 225 0 min
10.12.2018 08:35 4,3 C 32,4 C 10,8 C 84 % 99 % 1016,9 hPa 0,0 l/m 13,9 km/h (3 Bft) N-NO 20 0 min
10.12.2018 08:30 4,3 C 32,4 C 10,8 C 84 % 99 % 1016,9 hPa 0,0 l/m 11,5 km/h (2 Bft) N-NW 335 0 min
10.12.2018 08:25 4,3 C 32,4 C 10,8 C 84 % 99 % 1017,9 hPa 0,0 l/m 17,6 km/h (3 Bft) W 260 0 min
10.12.2018 08:20 4,2 C 32,4 C 10,8 C 85 % 99 % 1017,9 hPa 0,0 l/m 17,6 km/h (3 Bft) W 280 0 min
10.12.2018 08:15 4,2 C 32,4 C 10,8 C 85 % 99 % 1017,9 hPa 0,0 l/m 13,9 km/h (3 Bft) SW 225 0 min
10.12.2018 08:10 4,2 C 32,4 C 10,8 C 85 % 99 % 1017,9 hPa 0,0 l/m 10,9 km/h (2 Bft) NW 315 0 min
10.12.2018 08:05 4,2 C 32,4 C 10,8 C 85 % 99 % 1017,9 hPa 0,0 l/m 15,1 km/h (3 Bft) W-SW 255 0 min
10.12.2018 08:00 4,2 C 32,4 C 10,8 C 85 % 99 % 1017,9 hPa 0,0 l/m 16,3 km/h (3 Bft) N-NW 340 0 min
10.12.2018 07:55 4,2 C 32,4 C 10,8 C 85 % 99 % 1017,9 hPa 0,0 l/m 16,9 km/h (3 Bft) NW 315 0 min
10.12.2018 07:50 4,2 C 32,4 C 10,8 C 85 % 99 % 1017,9 hPa 0,0 l/m 15,7 km/h (3 Bft) W 275 0 min
10.12.2018 07:45 4,2 C 32,4 C 10,8 C 86 % 99 % 1017,9 hPa 0,0 l/m 14,5 km/h (3 Bft) SW 230 0 min
10.12.2018 07:40 4,2 C 32,4 C 10,8 C 86 % 99 % 1017,9 hPa 0,0 l/m 23,6 km/h (4 Bft) W-NW 295 0 min
10.12.2018 07:35 4,2 C 32,4 C 10,8 C 86 % 99 % 1017,9 hPa 0,0 l/m 18,8 km/h (3 Bft) W 265 0 min
10.12.2018 07:30 4,2 C 32,4 C 10,8 C 86 % 99 % 1017,9 hPa 0,0 l/m 13,3 km/h (3 Bft) W 280 0 min
10.12.2018 07:25 4,4 C 32,4 C 10,8 C 86 % 99 % 1016,9 hPa 0,0 l/m 23,0 km/h (4 Bft) SW 225 0 min
10.12.2018 07:20 4,3 C 32,4 C 10,8 C 86 % 99 % 1016,9 hPa 0,0 l/m 15,7 km/h (3 Bft) NW 305 0 min
10.12.2018 07:15 4,4 C 32,4 C 10,8 C 85 % 99 % 1016,9 hPa 0,0 l/m 13,3 km/h (3 Bft) W-NW 300 0 min
10.12.2018 07:10 4,5 C 32,4 C 10,8 C 85 % 99 % 1016,9 hPa 0,0 l/m 19,4 km/h (3 Bft) NW 305 0 min
10.12.2018 07:05 4,5 C 32,4 C 10,8 C 85 % 99 % 1016,9 hPa 0,0 l/m 20,6 km/h (4 Bft) W-NW 300 0 min
10.12.2018 07:00 4,7 C 32,4 C 10,8 C 85 % 99 % 1016,9 hPa 0,0 l/m 21,2 km/h (4 Bft) W-NW 300 0 min
10.12.2018 06:55 4,7 C 32,4 C 10,8 C 85 % 99 % 1015,9 hPa 0,0 l/m 21,2 km/h (4 Bft) W-NW 300 0 min
10.12.2018 06:50 4,7 C 32,4 C 10,8 C 85 % 99 % 1015,9 hPa 0,0 l/m 17,6 km/h (3 Bft) W-NW 295 0 min
10.12.2018 06:45 4,7 C 32,4 C 10,8 C 85 % 99 % 1015,9 hPa 0,3 l/m 20,0 km/h (4 Bft) W 275 0 min
10.12.2018 06:40 4,7 C 32,4 C 10,8 C 85 % 99 % 1016,9 hPa 0,0 l/m 15,7 km/h (3 Bft) W 280 0 min
10.12.2018 06:35 4,6 C 32,4 C 10,8 C 85 % 99 % 1016,9 hPa 0,0 l/m 19,4 km/h (3 Bft) W-NW 290 0 min
10.12.2018 06:30 4,6 C 32,4 C 10,8 C 84 % 99 % 1016,9 hPa 0,0 l/m 13,3 km/h (3 Bft) SW 235 0 min
10.12.2018 06:25 4,6 C 32,4 C 10,8 C 84 % 99 % 1015,9 hPa 0,0 l/m 17,6 km/h (3 Bft) NW 310 0 min
10.12.2018 06:20 4,6 C 32,4 C 10,8 C 84 % 99 % 1015,9 hPa 0,0 l/m 14,5 km/h (3 Bft) NW 315 0 min
10.12.2018 06:15 4,7 C 32,4 C 10,8 C 84 % 99 % 1015,9 hPa 0,0 l/m 23,0 km/h (4 Bft) W-NW 300 0 min
10.12.2018 06:10 4,8 C 32,4 C 10,8 C 84 % 99 % 1016,9 hPa 0,0 l/m 22,4 km/h (4 Bft) W-NW 285 0 min
10.12.2018 06:05 4,9 C 32,4 C 10,8 C 84 % 99 % 1016,9 hPa 0,0 l/m 23,0 km/h (4 Bft) S 170 0 min
10.12.2018 06:00 4,9 C 32,4 C 10,8 C 83 % 99 % 1016,9 hPa 0,0 l/m 16,9 km/h (3 Bft) NW 320 0 min
10.12.2018 05:55 4,9 C 32,4 C 10,8 C 83 % 99 % 1016,9 hPa 0,0 l/m 24,2 km/h (4 Bft) W-NW 290 0 min
10.12.2018 05:50 4,9 C 32,4 C 10,8 C 83 % 99 % 1016,9 hPa 0,0 l/m 27,8 km/h (5 Bft) SW 225 0 min
10.12.2018 05:45 4,8 C 32,4 C 10,8 C 83 % 99 % 1016,9 hPa 0,0 l/m 20,6 km/h (4 Bft) W-NW 290 0 min
10.12.2018 05:40 4,8 C 32,4 C 10,8 C 83 % 99 % 1015,9 hPa 0,0 l/m 18,8 km/h (3 Bft) W-NW 295 0 min
10.12.2018 05:35 4,9 C 32,4 C 10,8 C 83 % 99 % 1015,9 hPa 0,0 l/m 21,8 km/h (4 Bft) W-NW 290 0 min
10.12.2018 05:30 5,0 C 32,4 C 10,8 C 84 % 99 % 1015,9 hPa 0,0 l/m 23,6 km/h (4 Bft) NW 320 0 min
10.12.2018 05:25 4,9 C 32,4 C 10,8 C 84 % 99 % 1015,9 hPa 0,0 l/m 29,8 km/h (5 Bft) W-NW 290 0 min
10.12.2018 05:20 4,9 C 32,4 C 10,8 C 84 % 99 % 1015,9 hPa 0,0 l/m 26,7 km/h (4 Bft) W 280 0 min
10.12.2018 05:15 4,8 C 32,4 C 10,8 C 85 % 99 % 1015,9 hPa 0,0 l/m 24,8 km/h (4 Bft) W-SW 255 0 min
10.12.2018 05:10 4,7 C 32,4 C 10,8 C 85 % 99 % 1015,9 hPa 0,0 l/m 24,8 km/h (4 Bft) S 170 0 min
10.12.2018 05:05 4,6 C 32,4 C 10,8 C 85 % 99 % 1015,9 hPa 0,0 l/m 16,3 km/h (3 Bft) W-SW 255 0 min
10.12.2018 05:00 4,6 C 32,4 C 10,8 C 85 % 99 % 1015,9 hPa 0,0 l/m 17,6 km/h (3 Bft) W-NW 300 0 min
10.12.2018 04:55 4,6 C 32,4 C 10,8 C 84 % 99 % 1015,9 hPa 0,0 l/m 18,2 km/h (3 Bft) W-SW 245 0 min
10.12.2018 04:50 4,6 C 32,4 C 10,8 C 84 % 99 % 1015,9 hPa 0,0 l/m 19,4 km/h (3 Bft) N 355 0 min
10.12.2018 04:45 4,6 C 32,4 C 10,8 C 84 % 99 % 1015,9 hPa 0,0 l/m 16,9 km/h (3 Bft) N-NW 335 0 min
10.12.2018 04:40 4,7 C 32,4 C 10,8 C 84 % 99 % 1014,9 hPa 0,0 l/m 16,3 km/h (3 Bft) W-NW 290 0 min
10.12.2018 04:35 4,8 C 32,4 C 10,8 C 84 % 99 % 1014,9 hPa 0,0 l/m 23,6 km/h (4 Bft) W-NW 295 0 min
10.12.2018 04:30 4,7 C 32,4 C 10,8 C 84 % 99 % 1014,9 hPa 0,0 l/m 16,9 km/h (3 Bft) N 0 0 min
10.12.2018 04:25 4,8 C 32,4 C 10,8 C 84 % 99 % 1015,9 hPa 0,0 l/m 20,6 km/h (4 Bft) W-NW 295 0 min
10.12.2018 04:20 4,7 C 32,4 C 10,8 C 84 % 99 % 1015,9 hPa 0,0 l/m 24,2 km/h (4 Bft) W-NW 295 0 min
10.12.2018 04:15 4,7 C 32,4 C 10,8 C 84 % 99 % 1015,9 hPa 0,0 l/m 18,2 km/h (3 Bft) W 280 0 min
10.12.2018 04:10 4,8 C 32,4 C 10,8 C 83 % 99 % 1014,9 hPa 0,0 l/m 20,0 km/h (4 Bft) SW 225 0 min
10.12.2018 04:05 4,8 C 32,4 C 10,8 C 83 % 99 % 1014,9 hPa 0,0 l/m 19,4 km/h (3 Bft) NW 310 0 min
10.12.2018 04:00 4,8 C 32,4 C 10,8 C 82 % 99 % 1014,9 hPa 0,0 l/m 15,7 km/h (3 Bft) W 265 0 min
10.12.2018 03:55 4,9 C 32,4 C 10,8 C 82 % 99 % 1014,9 hPa 0,0 l/m 15,7 km/h (3 Bft) W-NW 290 0 min
10.12.2018 03:50 5,0 C 32,4 C 10,8 C 81 % 99 % 1014,9 hPa 0,0 l/m 21,2 km/h (4 Bft) W-NW 300 0 min
10.12.2018 03:45 5,1 C 32,4 C 10,8 C 81 % 99 % 1014,9 hPa 0,0 l/m 28,2 km/h (5 Bft) W-NW 300 0 min
10.12.2018 03:40 5,0 C 32,4 C 10,8 C 81 % 99 % 1014,9 hPa 0,0 l/m 27,1 km/h (5 Bft) NW 315 0 min
10.12.2018 03:35 5,1 C 32,4 C 10,8 C 80 % 99 % 1014,9 hPa 0,0 l/m 28,6 km/h (5 Bft) NW 305 0 min
10.12.2018 03:30 5,1 C 32,4 C 10,8 C 81 % 99 % 1014,9 hPa 0,0 l/m 29,4 km/h (5 Bft) NW 315 0 min
10.12.2018 03:25 5,0 C 32,4 C 10,8 C 81 % 99 % 1014,9 hPa 0,0 l/m 24,2 km/h (4 Bft) W-NW 290 0 min
10.12.2018 03:20 5,1 C 32,4 C 10,8 C 81 % 99 % 1014,9 hPa 0,0 l/m 25,4 km/h (4 Bft) NW 305 0 min
10.12.2018 03:15 5,0 C 32,4 C 10,8 C 82 % 99 % 1014,9 hPa 0,0 l/m 26,7 km/h (4 Bft) NW 310 0 min
10.12.2018 03:10 5,0 C 32,4 C 10,8 C 82 % 99 % 1014,9 hPa 0,0 l/m 21,8 km/h (4 Bft) NW 305 0 min
10.12.2018 03:05 4,9 C 32,4 C 10,8 C 82 % 99 % 1014,9 hPa 0,0 l/m 29,0 km/h (5 Bft) W 265 0 min
10.12.2018 03:00 4,8 C 32,4 C 10,8 C 82 % 99 % 1014,9 hPa 0,0 l/m 24,2 km/h (4 Bft) W 280 0 min
10.12.2018 02:55 4,8 C 32,4 C 10,8 C 82 % 99 % 1013,9 hPa 0,0 l/m 21,2 km/h (4 Bft) NW 325 0 min
10.12.2018 02:50 4,9 C 32,4 C 10,8 C 82 % 99 % 1013,9 hPa 0,0 l/m 24,8 km/h (4 Bft) W-SW 255 0 min
10.12.2018 02:45 4,8 C 32,4 C 10,8 C 82 % 99 % 1013,9 hPa 0,0 l/m 21,8 km/h (4 Bft) NW 305 0 min
10.12.2018 02:40 4,9 C 32,4 C 10,8 C 82 % 99 % 1014,9 hPa 0,0 l/m 25,4 km/h (4 Bft) NW 310 0 min
10.12.2018 02:35 4,8 C 32,4 C 10,8 C 83 % 99 % 1014,9 hPa 0,0 l/m 25,4 km/h (4 Bft) W 265 0 min
10.12.2018 02:30 4,9 C 32,4 C 10,8 C 82 % 99 % 1014,9 hPa 0,0 l/m 21,2 km/h (4 Bft) NW 305 0 min
10.12.2018 02:25 4,9 C 32,4 C 10,8 C 82 % 99 % 1013,9 hPa 0,0 l/m 21,2 km/h (4 Bft) W-SW 255 0 min
10.12.2018 02:20 5,1 C 32,4 C 10,8 C 82 % 99 % 1013,9 hPa 0,0 l/m 24,2 km/h (4 Bft) W 265 0 min
10.12.2018 02:15 5,2 C 32,4 C 10,8 C 82 % 99 % 1013,9 hPa 0,0 l/m 26,7 km/h (4 Bft) W-SW 245 0 min
10.12.2018 02:10 5,2 C 32,4 C 10,8 C 82 % 99 % 1013,9 hPa 0,0 l/m 24,2 km/h (4 Bft) NW 305 0 min
10.12.2018 02:05 5,3 C 32,4 C 10,8 C 82 % 99 % 1013,8 hPa 0,0 l/m 28,6 km/h (5 Bft) W 280 0 min
10.12.2018 02:00 5,3 C 32,4 C 10,8 C 82 % 99 % 1013,8 hPa 0,0 l/m 30,2 km/h (5 Bft) W 265 0 min
10.12.2018 01:55 5,2 C 32,4 C 10,8 C 82 % 99 % 1012,8 hPa 0,0 l/m 21,2 km/h (4 Bft) NW 325 0 min
10.12.2018 01:50 5,2 C 32,4 C 10,8 C 81 % 99 % 1012,8 hPa 0,0 l/m 24,8 km/h (4 Bft) W 265 0 min
10.12.2018 01:45 5,1 C 32,4 C 10,8 C 81 % 99 % 1012,8 hPa 0,0 l/m 18,2 km/h (3 Bft) W-NW 285 0 min
10.12.2018 01:40 5,2 C 32,4 C 10,8 C 80 % 99 % 1013,9 hPa 0,0 l/m 16,9 km/h (3 Bft) W-NW 300 0 min
10.12.2018 01:35 5,4 C 32,4 C 10,8 C 80 % 99 % 1013,8 hPa 0,0 l/m 24,8 km/h (4 Bft) W-NW 285 0 min
10.12.2018 01:30 5,3 C 32,4 C 10,8 C 81 % 99 % 1013,8 hPa 0,0 l/m 19,4 km/h (3 Bft) W 265 0 min
10.12.2018 01:25 5,4 C 32,4 C 10,8 C 81 % 99 % 1013,8 hPa 0,0 l/m 23,6 km/h (4 Bft) W-NW 295 0 min
10.12.2018 01:20 5,4 C 32,4 C 10,8 C 83 % 99 % 1013,8 hPa 0,0 l/m 23,0 km/h (4 Bft) NW 310 0 min
10.12.2018 01:15 5,5 C 32,4 C 10,8 C 83 % 99 % 1013,8 hPa 0,0 l/m 24,2 km/h (4 Bft) NW 315 0 min
10.12.2018 01:10 5,5 C 32,4 C 10,8 C 83 % 99 % 1013,8 hPa 0,0 l/m 24,8 km/h (4 Bft) W-NW 300 0 min
10.12.2018 01:05 5,5 C 32,4 C 10,8 C 83 % 99 % 1013,8 hPa 0,0 l/m 21,8 km/h (4 Bft) W-SW 255 0 min
10.12.2018 01:00 5,6 C 32,4 C 10,8 C 83 % 99 % 1013,8 hPa 0,0 l/m 24,2 km/h (4 Bft) W-NW 290 0 min
10.12.2018 00:55 5,5 C 32,4 C 10,8 C 83 % 99 % 1012,8 hPa 0,0 l/m 19,4 km/h (3 Bft) W-NW 290 0 min
10.12.2018 00:50 5,7 C 32,4 C 10,8 C 83 % 99 % 1012,8 hPa 0,0 l/m 21,8 km/h (4 Bft) W-NW 290 0 min
10.12.2018 00:45 5,9 C 32,4 C 10,8 C 83 % 99 % 1012,8 hPa 0,0 l/m 26,0 km/h (4 Bft) NW 315 0 min
10.12.2018 00:40 6,0 C 32,4 C 10,8 C 83 % 99 % 1013,8 hPa 0,0 l/m 27,8 km/h (5 Bft) NW 310 0 min
10.12.2018 00:35 6,0 C 32,4 C 10,8 C 83 % 99 % 1013,8 hPa 0,0 l/m 29,0 km/h (5 Bft) W-NW 285 0 min
10.12.2018 00:30 6,0 C 32,4 C 10,8 C 83 % 99 % 1013,8 hPa 0,0 l/m 26,7 km/h (4 Bft) NW 320 0 min
10.12.2018 00:25 5,9 C 32,4 C 10,8 C 83 % 99 % 1012,8 hPa 0,0 l/m 26,3 km/h (4 Bft) W 280 0 min
10.12.2018 00:20 5,9 C 32,4 C 10,8 C 83 % 99 % 1012,8 hPa 0,0 l/m 26,0 km/h (4 Bft) SW 235 0 min
10.12.2018 00:15 5,9 C 32,4 C 10,8 C 83 % 99 % 1012,8 hPa 0,0 l/m 23,0 km/h (4 Bft) W 270 0 min
10.12.2018 00:10 5,9 C 32,4 C 10,8 C 82 % 99 % 1011,8 hPa 0,0 l/m 25,4 km/h (4 Bft) W 280 0 min
10.12.2018 00:05 5,9 C 32,4 C 10,8 C 82 % 99 % 1011,8 hPa 0,0 l/m 26,3 km/h (4 Bft) NW 305 0 min
10.12.2018 00:00 5,9 C 32,4 C 10,8 C 82 % 99 % 1011,8 hPa 0,0 l/m 28,6 km/h (5 Bft) W 270 0 min
_ Min-Zeit 07:30 00:00 00:00 01:35 00:00 00:00 - 08:10 - - -
Minimum _ 4,2 C 32,4 C 10,8 C 80 % 99 % 1011,8 hPa - 10,9 km/h (2 Bft) - - -
_ Max-Zeit 00:30 00:00 00:00 07:20 00:00 07:30 06:45 02:00 - - 00:00
Maximum _ 6,0 C 32,4 C 10,8 C 86 % 99 % 1017,9 hPa 0,3 l/m 30,2 km/h
W (5 Bft)
- - 0 min
Durchschnitt _ 4,9 C 32,4 C 10,8 C 83 % 99 % 1015,3 hPa #0,3 l/m 21,4 km/h (4 Bft) W-NW - #0 min.